OBJECT BS, 43822

Orbit data source: Space-Track

You're viewing an uncataloged RSO

Recently launched and/or uncataloged RSOs may have evolving metadata. Metadata may include the following, but is not limited to: Owner, Manufacturer, Bus, Motor, and Mission.

OBJECT BS, 43822 is a satellite in SSO that was launched on Mon, 03 Dec 2018 UTC via an FALCON 9 launch vehicle from the Air Force Western Test Range (AFWTR). Unknown objects in Earth's orbit typically refer to objects detected orbiting the Earth but have not yet been identified or cataloged. These objects could be anything from previously untracked satellites, spent rocket stages, debris from satellite collisions, or even natural meteoroids temporarily captured by Earth's gravity.

Loading next visibility...
Identifier
43822, 2018-099BS
Orbit
SSO
Country
Flag of TBDTBD
Related business
None
Manufacturer
Unknown
Mission
Amateur Technology
Bus & Motor
Unknown
Mass
Unknown
Launch date (UTC)
2018-12-03 (8 years ago)
Launch vehicle
FALCON 9
Launch site
Air Force Western Test Range (AFWTR)
Object type
Unknown
Shape & HBR
Box, 0.3 m
Radar Cross Section
0.025 m², Medium (>0.1 m² and < 1m²)

Expand to show TLE details & history
Last TLE update: 1 day ago

TLE from 1 day ago
0 OBJECT BS
1 43822U 18099BS  26235.38188821  .00003566  00000-0  19393-3 0  9991
2 43822  97.4272 283.9034 0009388 114.0263 246.1953 15.15069945416394
Epoch: 2026-08-23T09:09Z
TLE epoch observation values (Epoch: 2026-08-23T09:09:55.141Z)
Latitude
-0.00001°
Longitude
174.7449°
Altitude
526.469 km
Speed
7.598 km/s
True Right ascension
18h 55m 36s
True Declination
0° 00' 00"
Sunlit
Object was in full shadow at epoch
Visualization orbit readout
Latitude
Unknown
Longitude
Unknown
Altitude
Unknown
Speed
Unknown
Apparent Right ascension
Unknown
Apparent Declination
Unknown
Sunlit
N/A
Visualization observer readout
Local Sidereal Time
02:49:55
Azimuth
Unknown
Elevation
Unknown
Doppler factor
Unknown
Orbital elements
Apogee altitude
524.213 km
Perigee altitude
511.266 km
Semi-major axis
6,895.877 km
Eccentricity
0.00094
Inclination
97.4272°
RAAN
283.9034°
Arg. of periapsis
114.0263°
True anomaly
246.09692°
Mean anomaly
246.1953°
Eccentric anomaly
246.14611°
Mean motion
3.79017 °/min
Orbital period
94.98 mins
BSTAR
0.00019393
Loading maneuver chart data...
Computing Atmospheric mass density...
Loading historical data...
Loading historical data...
Loading historical data...
Loading historical data...
Loading historical data...
Loading historical data...
Loading historical data...

Documentation

Showing up to 5 results
|